owner,sensor,date,latitude,longitude,air_pressure(mBar),qcFlag 
COMPS,ioos:station:USF.COMPS:C12:1,2017-03-01T00:05:00Z,27.4980,-83.7220,1019.6,1111122 
COMPS,ioos:station:USF.COMPS:C12:1,2017-03-01T00:35:00Z,27.4980,-83.7220,1019.58,1111122 
COMPS,ioos:station:USF.COMPS:C12:1,2017-03-01T01:05:00Z,27.4980,-83.7220,1019.57,1111122 
COMPS,ioos:station:USF.COMPS:C12:1,2017-03-01T01:35:00Z,27.4980,-83.7220,1019.5,1111122 
COMPS,ioos:station:USF.COMPS:C12:1,2017-03-01T02:05:00Z,27.4980,-83.7220,1019.5,1111122 
COMPS,ioos:station:USF.COMPS:C12:1,2017-03-01T02:35:00Z,27.4980,-83.7220,1019.61,1111122 
COMPS,ioos:station:USF.COMPS:C12:1,2017-03-01T03:05:00Z,27.4980,-83.7220,1019.61,1111122 
COMPS,ioos:station:USF.COMPS:C12:1,2017-03-01T03:35:00Z,27.4980,-83.7220,1019.74,1111122 
COMPS,ioos:station:USF.COMPS:C12:1,2017-03-01T04:05:00Z,27.4980,-83.7220,1019.66,1111122 
COMPS,ioos:station:USF.COMPS:C12:1,2017-03-01T04:35:00Z,27.4980,-83.7220,1019.53,1111122 
COMPS,ioos:station:USF.COMPS:C12:1,2017-03-01T05:05:00Z,27.4980,-83.7220,1019.07,1111122 
COMPS,ioos:station:USF.COMPS:C12:1,2017-03-01T05:35:00Z,27.4980,-83.7220,1019.08,1111122 
COMPS,ioos:station:USF.COMPS:C12:1,2017-03-01T06:05:00Z,27.4980,-83.7220,1018.97,1111122 
COMPS,ioos:station:USF.COMPS:C12:1,2017-03-01T06:35:00Z,27.4980,-83.7220,1018.73,1111122 
COMPS,ioos:station:USF.COMPS:C12:1,2017-03-01T07:05:00Z,27.4980,-83.7220,1018.72,1111122 
COMPS,ioos:station:USF.COMPS:C12:1,2017-03-01T07:35:00Z,27.4980,-83.7220,1018.55,1111122 
COMPS,ioos:station:USF.COMPS:C12:1,2017-03-01T08:05:00Z,27.4980,-83.7220,1018.27,1111122 
COMPS,ioos:station:USF.COMPS:C12:1,2017-03-01T08:35:00Z,27.4980,-83.7220,1018.03,1111122 
COMPS,ioos:station:USF.COMPS:C12:1,2017-03-01T09:05:00Z,27.4980,-83.7220,1017.83,1111122 
COMPS,ioos:station:USF.COMPS:C12:1,2017-03-01T09:35:00Z,27.4980,-83.7220,1017.87,1111122 
COMPS,ioos:station:USF.COMPS:C12:1,2017-03-01T10:05:00Z,27.4980,-83.7220,1018.2,1111122 
COMPS,ioos:station:USF.COMPS:C12:1,2017-03-01T10:35:00Z,27.4980,-83.7220,1018.51,1111122 
COMPS,ioos:station:USF.COMPS:C12:1,2017-03-01T11:05:00Z,27.4980,-83.7220,1018.72,1111122 
COMPS,ioos:station:USF.COMPS:C12:1,2017-03-01T11:35:00Z,27.4980,-83.7220,1018.72,1111122 
COMPS,ioos:station:USF.COMPS:C12:1,2017-03-01T12:05:00Z,27.4980,-83.7220,1018.79,1111122 
COMPS,ioos:station:USF.COMPS:C12:1,2017-03-01T12:35:00Z,27.4980,-83.7220,1019.06,1111122 
COMPS,ioos:station:USF.COMPS:C12:1,2017-03-01T13:05:00Z,27.4980,-83.7220,1019.07,1111122 
COMPS,ioos:station:USF.COMPS:C12:1,2017-03-01T13:35:00Z,27.4980,-83.7220,1019.01,1111122 
COMPS,ioos:station:USF.COMPS:C12:1,2017-03-01T14:05:00Z,27.4980,-83.7220,1019.35,1111122 
COMPS,ioos:station:USF.COMPS:C12:1,2017-03-01T14:35:00Z,27.4980,-83.7220,1019.48,1111122 
COMPS,ioos:station:USF.COMPS:C12:1,2017-03-01T15:05:00Z,27.4980,-83.7220,1019.55,1111122 
COMPS,ioos:station:USF.COMPS:C12:1,2017-03-01T15:35:00Z,27.4980,-83.7220,1019.68,1111122 
COMPS,ioos:station:USF.COMPS:C12:1,2017-03-01T16:05:00Z,27.4980,-83.7220,1019.71,1111122 
COMPS,ioos:station:USF.COMPS:C12:1,2017-03-01T16:35:00Z,27.4980,-83.7220,1019.21,1111122 
COMPS,ioos:station:USF.COMPS:C12:1,2017-03-01T17:05:00Z,27.4980,-83.7220,1018.88,1111122 
COMPS,ioos:station:USF.COMPS:C12:1,2017-03-01T17:35:00Z,27.4980,-83.7220,1018.62,1111122 
COMPS,ioos:station:USF.COMPS:C12:1,2017-03-01T18:05:00Z,27.4980,-83.7220,1018.27,1111122 
COMPS,ioos:station:USF.COMPS:C12:1,2017-03-01T18:35:00Z,27.4980,-83.7220,1017.86,1111122 
COMPS,ioos:station:USF.COMPS:C12:1,2017-03-01T19:05:00Z,27.4980,-83.7220,1017.45,1111122 
COMPS,ioos:station:USF.COMPS:C12:1,2017-03-01T19:35:00Z,27.4980,-83.7220,1017.11,1111122 
COMPS,ioos:station:USF.COMPS:C12:1,2017-03-01T20:05:00Z,27.4980,-83.7220,1017.02,1111122 
COMPS,ioos:station:USF.COMPS:C12:1,2017-03-01T20:35:00Z,27.4980,-83.7220,1016.74,1111122 
COMPS,ioos:station:USF.COMPS:C12:1,2017-03-01T21:05:00Z,27.4980,-83.7220,1016.48,1111122 
COMPS,ioos:station:USF.COMPS:C12:1,2017-03-01T21:35:00Z,27.4980,-83.7220,1016.32,1111122 
COMPS,ioos:station:USF.COMPS:C12:1,2017-03-01T22:05:00Z,27.4980,-83.7220,1015.92,1111122 
COMPS,ioos:station:USF.COMPS:C12:1,2017-03-01T22:35:00Z,27.4980,-83.7220,1015.87,1111122 
COMPS,ioos:station:USF.COMPS:C12:1,2017-03-01T23:05:00Z,27.4980,-83.7220,1015.88,1111122 
COMPS,ioos:station:USF.COMPS:C12:1,2017-03-01T23:35:00Z,27.4980,-83.7220,1015.96,1111122 
COMPS,ioos:station:USF.COMPS:C12:1,2017-03-02T00:05:00Z,27.4980,-83.7220,1015.93,1111122 
COMPS,ioos:station:USF.COMPS:C12:1,2017-03-02T00:35:00Z,27.4980,-83.7220,1015.98,1111122 
COMPS,ioos:station:USF.COMPS:C12:1,2017-03-02T01:05:00Z,27.4980,-83.7220,1016.28,1111122 
COMPS,ioos:station:USF.COMPS:C12:1,2017-03-02T01:35:00Z,27.4980,-83.7220,1016.32,1111122 
COMPS,ioos:station:USF.COMPS:C12:1,2017-03-02T02:05:00Z,27.4980,-83.7220,1016.41,1111122 
COMPS,ioos:station:USF.COMPS:C12:1,2017-03-02T02:35:00Z,27.4980,-83.7220,1016.39,1111122 
COMPS,ioos:station:USF.COMPS:C12:1,2017-03-02T03:05:00Z,27.4980,-83.7220,1016.48,1111122 
COMPS,ioos:station:USF.COMPS:C12:1,2017-03-02T03:35:00Z,27.4980,-83.7220,1016.39,1111122 
COMPS,ioos:station:USF.COMPS:C12:1,2017-03-02T04:05:00Z,27.4980,-83.7220,1016.3,1111122 
COMPS,ioos:station:USF.COMPS:C12:1,2017-03-02T04:35:00Z,27.4980,-83.7220,1016.29,1111122 
COMPS,ioos:station:USF.COMPS:C12:1,2017-03-02T05:05:00Z,27.4980,-83.7220,1016.39,1111122 
COMPS,ioos:station:USF.COMPS:C12:1,2017-03-02T05:35:00Z,27.4980,-83.7220,1016.22,1111122 
COMPS,ioos:station:USF.COMPS:C12:1,2017-03-02T06:05:00Z,27.4980,-83.7220,1016.0,1111122 
COMPS,ioos:station:USF.COMPS:C12:1,2017-03-02T06:35:00Z,27.4980,-83.7220,1015.83,1111122 
COMPS,ioos:station:USF.COMPS:C12:1,2017-03-02T07:05:00Z,27.4980,-83.7220,1015.58,1111122 
COMPS,ioos:station:USF.COMPS:C12:1,2017-03-02T07:35:00Z,27.4980,-83.7220,1015.17,1111122 
COMPS,ioos:station:USF.COMPS:C12:1,2017-03-02T08:05:00Z,27.4980,-83.7220,1015.27,1111122 
COMPS,ioos:station:USF.COMPS:C12:1,2017-03-02T08:35:00Z,27.4980,-83.7220,1015.54,1111122 
COMPS,ioos:station:USF.COMPS:C12:1,2017-03-02T09:05:00Z,27.4980,-83.7220,1015.0,1111122 
COMPS,ioos:station:USF.COMPS:C12:1,2017-03-02T09:35:00Z,27.4980,-83.7220,1014.68,1111122 
COMPS,ioos:station:USF.COMPS:C12:1,2017-03-02T10:05:00Z,27.4980,-83.7220,1014.86,1111122 
COMPS,ioos:station:USF.COMPS:C12:1,2017-03-02T10:35:00Z,27.4980,-83.7220,1014.95,1111122 
COMPS,ioos:station:USF.COMPS:C12:1,2017-03-02T11:05:00Z,27.4980,-83.7220,1015.07,1111122 
COMPS,ioos:station:USF.COMPS:C12:1,2017-03-02T11:35:00Z,27.4980,-83.7220,1015.3,1111122 
COMPS,ioos:station:USF.COMPS:C12:1,2017-03-02T12:05:00Z,27.4980,-83.7220,1015.74,1111122 
COMPS,ioos:station:USF.COMPS:C12:1,2017-03-02T12:35:00Z,27.4980,-83.7220,1015.94,1111122 
COMPS,ioos:station:USF.COMPS:C12:1,2017-03-02T13:05:00Z,27.4980,-83.7220,1016.12,1111122 
COMPS,ioos:station:USF.COMPS:C12:1,2017-03-02T13:35:00Z,27.4980,-83.7220,1016.44,1111122 
COMPS,ioos:station:USF.COMPS:C12:1,2017-03-02T15:05:00Z,27.4980,-83.7220,1017.49,1111122 
COMPS,ioos:station:USF.COMPS:C12:1,2017-03-02T15:35:00Z,27.4980,-83.7220,1017.9,1111122 
COMPS,ioos:station:USF.COMPS:C12:1,2017-03-02T16:05:00Z,27.4980,-83.7220,1017.95,1111122 
COMPS,ioos:station:USF.COMPS:C12:1,2017-03-02T16:35:00Z,27.4980,-83.7220,1018.03,1111122 
COMPS,ioos:station:USF.COMPS:C12:1,2017-03-02T17:05:00Z,27.4980,-83.7220,1018.0,1111122 
COMPS,ioos:station:USF.COMPS:C12:1,2017-03-02T17:35:00Z,27.4980,-83.7220,1017.79,1111122 
COMPS,ioos:station:USF.COMPS:C12:1,2017-03-02T18:05:00Z,27.4980,-83.7220,1017.56,1111122 
COMPS,ioos:station:USF.COMPS:C12:1,2017-03-02T18:35:00Z,27.4980,-83.7220,1017.45,1111122 
COMPS,ioos:station:USF.COMPS:C12:1,2017-03-02T19:05:00Z,27.4980,-83.7220,1016.95,1111122 
COMPS,ioos:station:USF.COMPS:C12:1,2017-03-02T19:35:00Z,27.4980,-83.7220,1016.92,1111122 
COMPS,ioos:station:USF.COMPS:C12:1,2017-03-02T20:05:00Z,27.4980,-83.7220,1016.85,1111122 
COMPS,ioos:station:USF.COMPS:C12:1,2017-03-02T20:35:00Z,27.4980,-83.7220,1016.92,1111122 
COMPS,ioos:station:USF.COMPS:C12:1,2017-03-02T21:05:00Z,27.4980,-83.7220,1016.89,1111122 
COMPS,ioos:station:USF.COMPS:C12:1,2017-03-02T21:35:00Z,27.4980,-83.7220,1017.33,1111122 
COMPS,ioos:station:USF.COMPS:C12:1,2017-03-02T22:05:00Z,27.4980,-83.7220,1017.66,1111122 
COMPS,ioos:station:USF.COMPS:C12:1,2017-03-02T22:35:00Z,27.4980,-83.7220,1018.0,1111122 
COMPS,ioos:station:USF.COMPS:C12:1,2017-03-02T23:05:00Z,27.4980,-83.7220,1018.51,1111122 
COMPS,ioos:station:USF.COMPS:C12:1,2017-03-02T23:35:00Z,27.4980,-83.7220,1018.8,1111122 
COMPS,ioos:station:USF.COMPS:C12:1,2017-03-03T00:05:00Z,27.4980,-83.7220,1018.94,1111122 
COMPS,ioos:station:USF.COMPS:C12:1,2017-03-03T00:35:00Z,27.4980,-83.7220,1019.2,1111122 
COMPS,ioos:station:USF.COMPS:C12:1,2017-03-03T01:05:00Z,27.4980,-83.7220,1019.82,1111122 
COMPS,ioos:station:USF.COMPS:C12:1,2017-03-03T01:35:00Z,27.4980,-83.7220,1020.23,1111122 
COMPS,ioos:station:USF.COMPS:C12:1,2017-03-03T02:05:00Z,27.4980,-83.7220,1020.5,1111122 
COMPS,ioos:station:USF.COMPS:C12:1,2017-03-03T02:35:00Z,27.4980,-83.7220,1020.85,1111122 
COMPS,ioos:station:USF.COMPS:C12:1,2017-03-03T03:05:00Z,27.4980,-83.7220,1021.03,1111122 
COMPS,ioos:station:USF.COMPS:C12:1,2017-03-03T03:35:00Z,27.4980,-83.7220,1021.02,1111122 
COMPS,ioos:station:USF.COMPS:C12:1,2017-03-03T04:05:00Z,27.4980,-83.7220,1021.01,1111122 
COMPS,ioos:station:USF.COMPS:C12:1,2017-03-03T04:35:00Z,27.4980,-83.7220,1021.06,1111122 
COMPS,ioos:station:USF.COMPS:C12:1,2017-03-03T05:05:00Z,27.4980,-83.7220,1021.36,1111122 
COMPS,ioos:station:USF.COMPS:C12:1,2017-03-03T05:35:00Z,27.4980,-83.7220,1021.32,1111122 
COMPS,ioos:station:USF.COMPS:C12:1,2017-03-03T06:05:00Z,27.4980,-83.7220,1021.31,1111122 
COMPS,ioos:station:USF.COMPS:C12:1,2017-03-03T06:35:00Z,27.4980,-83.7220,1021.47,1111122 
COMPS,ioos:station:USF.COMPS:C12:1,2017-03-03T07:05:00Z,27.4980,-83.7220,1021.52,1111122 
COMPS,ioos:station:USF.COMPS:C12:1,2017-03-03T07:35:00Z,27.4980,-83.7220,1021.5,1111122 
COMPS,ioos:station:USF.COMPS:C12:1,2017-03-03T08:05:00Z,27.4980,-83.7220,1021.65,1111122 
COMPS,ioos:station:USF.COMPS:C12:1,2017-03-03T08:35:00Z,27.4980,-83.7220,1021.84,1111122 
COMPS,ioos:station:USF.COMPS:C12:1,2017-03-03T09:05:00Z,27.4980,-83.7220,1022.13,1111122 
COMPS,ioos:station:USF.COMPS:C12:1,2017-03-03T09:35:00Z,27.4980,-83.7220,1022.52,1111122 
COMPS,ioos:station:USF.COMPS:C12:1,2017-03-03T10:05:00Z,27.4980,-83.7220,1022.95,1111122 
COMPS,ioos:station:USF.COMPS:C12:1,2017-03-03T10:35:00Z,27.4980,-83.7220,1023.33,1111122 
COMPS,ioos:station:USF.COMPS:C12:1,2017-03-03T11:05:00Z,27.4980,-83.7220,1023.78,1111122 
COMPS,ioos:station:USF.COMPS:C12:1,2017-03-03T11:35:00Z,27.4980,-83.7220,1024.21,1111122 
COMPS,ioos:station:USF.COMPS:C12:1,2017-03-03T12:05:00Z,27.4980,-83.7220,1024.62,1111122 
COMPS,ioos:station:USF.COMPS:C12:1,2017-03-03T12:35:00Z,27.4980,-83.7220,1025.16,1111122 
COMPS,ioos:station:USF.COMPS:C12:1,2017-03-03T13:05:00Z,27.4980,-83.7220,1025.85,1111122 
COMPS,ioos:station:USF.COMPS:C12:1,2017-03-03T13:35:00Z,27.4980,-83.7220,1026.15,1111122 
COMPS,ioos:station:USF.COMPS:C12:1,2017-03-03T14:05:00Z,27.4980,-83.7220,1026.47,1111122 
COMPS,ioos:station:USF.COMPS:C12:1,2017-03-03T14:35:00Z,27.4980,-83.7220,1026.7,1111122 
COMPS,ioos:station:USF.COMPS:C12:1,2017-03-03T15:05:00Z,27.4980,-83.7220,1026.81,1111122 
COMPS,ioos:station:USF.COMPS:C12:1,2017-03-03T15:35:00Z,27.4980,-83.7220,1026.97,1111122 
COMPS,ioos:station:USF.COMPS:C12:1,2017-03-03T16:05:00Z,27.4980,-83.7220,1027.07,1111122 
COMPS,ioos:station:USF.COMPS:C12:1,2017-03-03T16:35:00Z,27.4980,-83.7220,1027.01,1111122 
COMPS,ioos:station:USF.COMPS:C12:1,2017-03-03T17:05:00Z,27.4980,-83.7220,1026.76,1111122 
COMPS,ioos:station:USF.COMPS:C12:1,2017-03-03T17:35:00Z,27.4980,-83.7220,1026.55,1111122 
COMPS,ioos:station:USF.COMPS:C12:1,2017-03-03T18:05:00Z,27.4980,-83.7220,1026.01,1111122 
COMPS,ioos:station:USF.COMPS:C12:1,2017-03-03T18:35:00Z,27.4980,-83.7220,1025.77,1111122 
COMPS,ioos:station:USF.COMPS:C12:1,2017-03-03T19:05:00Z,27.4980,-83.7220,1025.42,1111122 
COMPS,ioos:station:USF.COMPS:C12:1,2017-03-03T19:35:00Z,27.4980,-83.7220,1025.32,1111122 
COMPS,ioos:station:USF.COMPS:C12:1,2017-03-03T20:05:00Z,27.4980,-83.7220,1025.11,1111122 
COMPS,ioos:station:USF.COMPS:C12:1,2017-03-03T20:35:00Z,27.4980,-83.7220,1025.03,1111122 
COMPS,ioos:station:USF.COMPS:C12:1,2017-03-03T21:05:00Z,27.4980,-83.7220,1024.98,1111122 
COMPS,ioos:station:USF.COMPS:C12:1,2017-03-03T21:35:00Z,27.4980,-83.7220,1025.12,1111122 
COMPS,ioos:station:USF.COMPS:C12:1,2017-03-03T22:05:00Z,27.4980,-83.7220,1025.2,1111122 
COMPS,ioos:station:USF.COMPS:C12:1,2017-03-03T22:35:00Z,27.4980,-83.7220,1025.35,1111122 
COMPS,ioos:station:USF.COMPS:C12:1,2017-03-03T23:05:00Z,27.4980,-83.7220,1025.38,1111122 
COMPS,ioos:station:USF.COMPS:C12:1,2017-03-03T23:35:00Z,27.4980,-83.7220,1025.39,1111122 
COMPS,ioos:station:USF.COMPS:C12:1,2017-03-04T00:05:00Z,27.4980,-83.7220,1025.62,1111122 
COMPS,ioos:station:USF.COMPS:C12:1,2017-03-04T00:35:00Z,27.4980,-83.7220,1025.97,1111122 
COMPS,ioos:station:USF.COMPS:C12:1,2017-03-04T01:05:00Z,27.4980,-83.7220,1026.23,1111122 
COMPS,ioos:station:USF.COMPS:C12:1,2017-03-04T01:35:00Z,27.4980,-83.7220,1026.44,1111122 
COMPS,ioos:station:USF.COMPS:C12:1,2017-03-04T02:05:00Z,27.4980,-83.7220,1026.87,1111122 
COMPS,ioos:station:USF.COMPS:C12:1,2017-03-04T02:35:00Z,27.4980,-83.7220,1027.07,1111122 
COMPS,ioos:station:USF.COMPS:C12:1,2017-03-04T03:05:00Z,27.4980,-83.7220,1027.51,1111122 
COMPS,ioos:station:USF.COMPS:C12:1,2017-03-04T03:35:00Z,27.4980,-83.7220,1027.71,1111122 
COMPS,ioos:station:USF.COMPS:C12:1,2017-03-04T04:05:00Z,27.4980,-83.7220,1027.91,1111122 
COMPS,ioos:station:USF.COMPS:C12:1,2017-03-04T04:35:00Z,27.4980,-83.7220,1027.91,1111122 
COMPS,ioos:station:USF.COMPS:C12:1,2017-03-04T05:05:00Z,27.4980,-83.7220,1027.94,1111122 
COMPS,ioos:station:USF.COMPS:C12:1,2017-03-04T05:35:00Z,27.4980,-83.7220,1027.78,1111122 
COMPS,ioos:station:USF.COMPS:C12:1,2017-03-04T06:05:00Z,27.4980,-83.7220,1027.77,1111122 
COMPS,ioos:station:USF.COMPS:C12:1,2017-03-04T06:35:00Z,27.4980,-83.7220,1027.74,1111122 
COMPS,ioos:station:USF.COMPS:C12:1,2017-03-04T07:05:00Z,27.4980,-83.7220,1027.57,1111122 
COMPS,ioos:station:USF.COMPS:C12:1,2017-03-04T07:35:00Z,27.4980,-83.7220,1027.44,1111122 
COMPS,ioos:station:USF.COMPS:C12:1,2017-03-04T08:05:00Z,27.4980,-83.7220,1027.21,1111122 
COMPS,ioos:station:USF.COMPS:C12:1,2017-03-04T08:35:00Z,27.4980,-83.7220,1027.1,1111122 
COMPS,ioos:station:USF.COMPS:C12:1,2017-03-04T09:05:00Z,27.4980,-83.7220,1027.09,1111122 
COMPS,ioos:station:USF.COMPS:C12:1,2017-03-04T09:35:00Z,27.4980,-83.7220,1027.26,1111122 
COMPS,ioos:station:USF.COMPS:C12:1,2017-03-04T10:05:00Z,27.4980,-83.7220,1027.37,1111122 
COMPS,ioos:station:USF.COMPS:C12:1,2017-03-04T10:35:00Z,27.4980,-83.7220,1027.45,1111122 
COMPS,ioos:station:USF.COMPS:C12:1,2017-03-04T11:05:00Z,27.4980,-83.7220,1027.84,1111122 
COMPS,ioos:station:USF.COMPS:C12:1,2017-03-04T11:35:00Z,27.4980,-83.7220,1028.02,1111122 
COMPS,ioos:station:USF.COMPS:C12:1,2017-03-04T12:05:00Z,27.4980,-83.7220,1028.43,1111122 
COMPS,ioos:station:USF.COMPS:C12:1,2017-03-04T12:35:00Z,27.4980,-83.7220,1028.45,1111122 
COMPS,ioos:station:USF.COMPS:C12:1,2017-03-04T13:05:00Z,27.4980,-83.7220,1028.88,1111122 
COMPS,ioos:station:USF.COMPS:C12:1,2017-03-04T13:35:00Z,27.4980,-83.7220,1028.97,1111122 
COMPS,ioos:station:USF.COMPS:C12:1,2017-03-04T14:05:00Z,27.4980,-83.7220,1029.36,1111122 
COMPS,ioos:station:USF.COMPS:C12:1,2017-03-04T14:35:00Z,27.4980,-83.7220,1029.43,1111122 
COMPS,ioos:station:USF.COMPS:C12:1,2017-03-04T15:05:00Z,27.4980,-83.7220,1029.67,1111122 
COMPS,ioos:station:USF.COMPS:C12:1,2017-03-04T15:35:00Z,27.4980,-83.7220,1029.41,1111122 
COMPS,ioos:station:USF.COMPS:C12:1,2017-03-04T16:05:00Z,27.4980,-83.7220,1029.4,1111122 
COMPS,ioos:station:USF.COMPS:C12:1,2017-03-04T16:35:00Z,27.4980,-83.7220,1029.25,1111122 
COMPS,ioos:station:USF.COMPS:C12:1,2017-03-04T17:05:00Z,27.4980,-83.7220,1029.0,1111122 
COMPS,ioos:station:USF.COMPS:C12:1,2017-03-04T17:35:00Z,27.4980,-83.7220,1028.58,1111122 
COMPS,ioos:station:USF.COMPS:C12:1,2017-03-04T18:05:00Z,27.4980,-83.7220,1027.99,1111122 
COMPS,ioos:station:USF.COMPS:C12:1,2017-03-04T18:35:00Z,27.4980,-83.7220,1027.55,1111122 
COMPS,ioos:station:USF.COMPS:C12:1,2017-03-04T19:05:00Z,27.4980,-83.7220,1027.01,1111122 
COMPS,ioos:station:USF.COMPS:C12:1,2017-03-04T19:35:00Z,27.4980,-83.7220,1026.4,1111122 
COMPS,ioos:station:USF.COMPS:C12:1,2017-03-04T20:05:00Z,27.4980,-83.7220,1026.13,1111122 
COMPS,ioos:station:USF.COMPS:C12:1,2017-03-04T20:35:00Z,27.4980,-83.7220,1026.06,1111122 
COMPS,ioos:station:USF.COMPS:C12:1,2017-03-04T21:05:00Z,27.4980,-83.7220,1025.96,1111122 
COMPS,ioos:station:USF.COMPS:C12:1,2017-03-04T21:35:00Z,27.4980,-83.7220,1025.53,1111122 
COMPS,ioos:station:USF.COMPS:C12:1,2017-03-04T22:05:00Z,27.4980,-83.7220,1025.52,1111122 
COMPS,ioos:station:USF.COMPS:C12:1,2017-03-04T22:35:00Z,27.4980,-83.7220,1025.16,1111122 
COMPS,ioos:station:USF.COMPS:C12:1,2017-03-04T23:05:00Z,27.4980,-83.7220,1025.12,1111122 
COMPS,ioos:station:USF.COMPS:C12:1,2017-03-04T23:35:00Z,27.4980,-83.7220,1025.24,1111122 
COMPS,ioos:station:USF.COMPS:C12:1,2017-03-05T00:05:00Z,27.4980,-83.7220,1025.35,1111122 
COMPS,ioos:station:USF.COMPS:C12:1,2017-03-05T00:35:00Z,27.4980,-83.7220,1025.34,1111122 
COMPS,ioos:station:USF.COMPS:C12:1,2017-03-05T01:05:00Z,27.4980,-83.7220,1025.57,1111122 
COMPS,ioos:station:USF.COMPS:C12:1,2017-03-05T01:35:00Z,27.4980,-83.7220,1025.67,1111122 
COMPS,ioos:station:USF.COMPS:C12:1,2017-03-05T02:05:00Z,27.4980,-83.7220,1025.93,1111122 
COMPS,ioos:station:USF.COMPS:C12:1,2017-03-05T02:35:00Z,27.4980,-83.7220,1025.98,1111122 
COMPS,ioos:station:USF.COMPS:C12:1,2017-03-05T03:05:00Z,27.4980,-83.7220,1026.13,1111122 
COMPS,ioos:station:USF.COMPS:C12:1,2017-03-05T03:35:00Z,27.4980,-83.7220,1026.26,1111122 
COMPS,ioos:station:USF.COMPS:C12:1,2017-03-05T04:05:00Z,27.4980,-83.7220,1026.32,1111122 
COMPS,ioos:station:USF.COMPS:C12:1,2017-03-05T04:35:00Z,27.4980,-83.7220,1026.02,1111122 
COMPS,ioos:station:USF.COMPS:C12:1,2017-03-05T05:05:00Z,27.4980,-83.7220,1026.07,1111122 
COMPS,ioos:station:USF.COMPS:C12:1,2017-03-05T05:35:00Z,27.4980,-83.7220,1026.04,1111122 
COMPS,ioos:station:USF.COMPS:C12:1,2017-03-05T06:05:00Z,27.4980,-83.7220,1026.17,1111122 
COMPS,ioos:station:USF.COMPS:C12:1,2017-03-05T06:35:00Z,27.4980,-83.7220,1025.94,1111122 
COMPS,ioos:station:USF.COMPS:C12:1,2017-03-05T07:05:00Z,27.4980,-83.7220,1025.67,1111122 
COMPS,ioos:station:USF.COMPS:C12:1,2017-03-05T07:35:00Z,27.4980,-83.7220,1025.52,1111122 
COMPS,ioos:station:USF.COMPS:C12:1,2017-03-05T08:05:00Z,27.4980,-83.7220,1025.21,1111122 
COMPS,ioos:station:USF.COMPS:C12:1,2017-03-05T08:35:00Z,27.4980,-83.7220,1025.16,1111122 
COMPS,ioos:station:USF.COMPS:C12:1,2017-03-05T09:05:00Z,27.4980,-83.7220,1025.1,1111122 
COMPS,ioos:station:USF.COMPS:C12:1,2017-03-05T09:35:00Z,27.4980,-83.7220,1025.11,1111122 
COMPS,ioos:station:USF.COMPS:C12:1,2017-03-05T10:05:00Z,27.4980,-83.7220,1025.19,1111122 
COMPS,ioos:station:USF.COMPS:C12:1,2017-03-05T10:35:00Z,27.4980,-83.7220,1025.26,1111122 
COMPS,ioos:station:USF.COMPS:C12:1,2017-03-05T11:05:00Z,27.4980,-83.7220,1025.47,1111122 
COMPS,ioos:station:USF.COMPS:C12:1,2017-03-05T11:35:00Z,27.4980,-83.7220,1025.42,1111122 
COMPS,ioos:station:USF.COMPS:C12:1,2017-03-05T12:05:00Z,27.4980,-83.7220,1025.54,1111122 
COMPS,ioos:station:USF.COMPS:C12:1,2017-03-05T12:35:00Z,27.4980,-83.7220,1025.68,1111122 
COMPS,ioos:station:USF.COMPS:C12:1,2017-03-05T13:05:00Z,27.4980,-83.7220,1025.69,1111122 
COMPS,ioos:station:USF.COMPS:C12:1,2017-03-05T13:35:00Z,27.4980,-83.7220,1025.9,1111122 
COMPS,ioos:station:USF.COMPS:C12:1,2017-03-05T14:05:00Z,27.4980,-83.7220,1026.26,1111122 
COMPS,ioos:station:USF.COMPS:C12:1,2017-03-05T14:35:00Z,27.4980,-83.7220,1026.33,1111122 
COMPS,ioos:station:USF.COMPS:C12:1,2017-03-05T15:05:00Z,27.4980,-83.7220,1026.5,1111122 
COMPS,ioos:station:USF.COMPS:C12:1,2017-03-05T15:35:00Z,27.4980,-83.7220,1026.7,1111122 
COMPS,ioos:station:USF.COMPS:C12:1,2017-03-05T16:05:00Z,27.4980,-83.7220,1026.74,1111122 
COMPS,ioos:station:USF.COMPS:C12:1,2017-03-05T16:35:00Z,27.4980,-83.7220,1026.42,1111122 
COMPS,ioos:station:USF.COMPS:C12:1,2017-03-05T17:05:00Z,27.4980,-83.7220,1026.52,1111122 
COMPS,ioos:station:USF.COMPS:C12:1,2017-03-05T17:35:00Z,27.4980,-83.7220,1026.21,1111122 
COMPS,ioos:station:USF.COMPS:C12:1,2017-03-05T18:05:00Z,27.4980,-83.7220,1025.78,1111122 
COMPS,ioos:station:USF.COMPS:C12:1,2017-03-05T18:35:00Z,27.4980,-83.7220,1025.4,1111122 
COMPS,ioos:station:USF.COMPS:C12:1,2017-03-05T19:05:00Z,27.4980,-83.7220,1024.8,1111122 
COMPS,ioos:station:USF.COMPS:C12:1,2017-03-05T19:35:00Z,27.4980,-83.7220,1024.59,1111122 
COMPS,ioos:station:USF.COMPS:C12:1,2017-03-05T20:05:00Z,27.4980,-83.7220,1024.4,1111122 
COMPS,ioos:station:USF.COMPS:C12:1,2017-03-05T20:35:00Z,27.4980,-83.7220,1024.18,1111122 
COMPS,ioos:station:USF.COMPS:C12:1,2017-03-05T21:05:00Z,27.4980,-83.7220,1023.91,1111122 
COMPS,ioos:station:USF.COMPS:C12:1,2017-03-05T21:35:00Z,27.4980,-83.7220,1023.75,1111122 
COMPS,ioos:station:USF.COMPS:C12:1,2017-03-05T22:05:00Z,27.4980,-83.7220,1023.6,1111122 
COMPS,ioos:station:USF.COMPS:C12:1,2017-03-05T22:35:00Z,27.4980,-83.7220,1023.73,1111122 
COMPS,ioos:station:USF.COMPS:C12:1,2017-03-05T23:05:00Z,27.4980,-83.7220,1023.76,1111122 
COMPS,ioos:station:USF.COMPS:C12:1,2017-03-05T23:35:00Z,27.4980,-83.7220,1023.92,1111122 
COMPS,ioos:station:USF.COMPS:C12:1,2017-03-06T00:05:00Z,27.4980,-83.7220,1024.1,1111122 
COMPS,ioos:station:USF.COMPS:C12:1,2017-03-06T00:35:00Z,27.4980,-83.7220,1024.18,1111122 
COMPS,ioos:station:USF.COMPS:C12:1,2017-03-06T01:05:00Z,27.4980,-83.7220,1024.47,1111122 
COMPS,ioos:station:USF.COMPS:C12:1,2017-03-06T01:35:00Z,27.4980,-83.7220,1024.58,1111122 
COMPS,ioos:station:USF.COMPS:C12:1,2017-03-06T02:05:00Z,27.4980,-83.7220,1025.04,1111122 
COMPS,ioos:station:USF.COMPS:C12:1,2017-03-06T02:35:00Z,27.4980,-83.7220,1025.08,1111122 
COMPS,ioos:station:USF.COMPS:C12:1,2017-03-06T03:05:00Z,27.4980,-83.7220,1025.41,1111122 
COMPS,ioos:station:USF.COMPS:C12:1,2017-03-06T03:35:00Z,27.4980,-83.7220,1025.59,1111122 
COMPS,ioos:station:USF.COMPS:C12:1,2017-03-06T04:05:00Z,27.4980,-83.7220,1025.33,1111122 
COMPS,ioos:station:USF.COMPS:C12:1,2017-03-06T04:35:00Z,27.4980,-83.7220,1025.28,1111122 
COMPS,ioos:station:USF.COMPS:C12:1,2017-03-06T05:05:00Z,27.4980,-83.7220,1025.06,1111122 
COMPS,ioos:station:USF.COMPS:C12:1,2017-03-06T05:35:00Z,27.4980,-83.7220,1024.64,1111122 
COMPS,ioos:station:USF.COMPS:C12:1,2017-03-06T06:05:00Z,27.4980,-83.7220,1024.59,1111122 
COMPS,ioos:station:USF.COMPS:C12:1,2017-03-06T06:35:00Z,27.4980,-83.7220,1024.25,1111122 
COMPS,ioos:station:USF.COMPS:C12:1,2017-03-06T07:05:00Z,27.4980,-83.7220,1024.31,1111122 
COMPS,ioos:station:USF.COMPS:C12:1,2017-03-06T07:35:00Z,27.4980,-83.7220,1024.17,1111122 
COMPS,ioos:station:USF.COMPS:C12:1,2017-03-06T08:05:00Z,27.4980,-83.7220,1024.27,1111122 
COMPS,ioos:station:USF.COMPS:C12:1,2017-03-06T08:35:00Z,27.4980,-83.7220,1024.15,1111122 
COMPS,ioos:station:USF.COMPS:C12:1,2017-03-06T09:05:00Z,27.4980,-83.7220,1024.02,1111122 
COMPS,ioos:station:USF.COMPS:C12:1,2017-03-06T09:35:00Z,27.4980,-83.7220,1023.81,1111122 
COMPS,ioos:station:USF.COMPS:C12:1,2017-03-06T10:05:00Z,27.4980,-83.7220,1023.81,1111122 
COMPS,ioos:station:USF.COMPS:C12:1,2017-03-06T10:35:00Z,27.4980,-83.7220,1023.99,1111122 
COMPS,ioos:station:USF.COMPS:C12:1,2017-03-06T11:05:00Z,27.4980,-83.7220,1023.89,1111122 
COMPS,ioos:station:USF.COMPS:C12:1,2017-03-06T11:35:00Z,27.4980,-83.7220,1023.99,1111122 
COMPS,ioos:station:USF.COMPS:C12:1,2017-03-06T12:05:00Z,27.4980,-83.7220,1024.31,1111122 
COMPS,ioos:station:USF.COMPS:C12:1,2017-03-06T12:35:00Z,27.4980,-83.7220,1024.35,1111122 
COMPS,ioos:station:USF.COMPS:C12:1,2017-03-06T13:05:00Z,27.4980,-83.7220,1024.63,1111122 
COMPS,ioos:station:USF.COMPS:C12:1,2017-03-06T13:35:00Z,27.4980,-83.7220,1024.86,1111122 